Tracking 25612 objects as of 20-May-2022
HD Live streaming from Space Station
objects crossing your sky now

ARIANE 5 R/B

Track ARIANE 5 R/B now!


NORAD ID: 41383
Int'l Code: 2016-014B
Perigee: 196.9 km
Apogee: 30,094.4 km
Inclination: 0.5 °
Period: 523.5 minutes
Semi major axis: 21516 km
RCS: Unknown
Launch date: March 9, 2016
Source: France (FR)
Launch site: FRENCH GUIANA (FRGUI)

Note: This is a ROCKET BODY
aabbcc
Your satellite tracking list
Your tracking list is empty




NASA's NSSDC Master Catalog

Two Line Element Set (TLE):
1 41383U 16014B   22139.03737078  .00037562  61277-7  17452-2 0  9997
2 41383   0.4603 102.7565 6947516 145.2590  28.3324  2.75068668 57219
Source of the keplerian elements: AFSPC